Truckee-Tahoe, CA

2:02 PM PST on February 20, 2018 (GMT -0800)
Truckee-Tahoe

Weather History for KTRK - April, 2014

Change the Weather History Date:

Wednesday, April 23, 2014

  Actual Average Record
Temperature  
Mean Temperature 38 °F -  
Max Temperature 53 °F 54 °F 72 °F (1954)
Min Temperature 23 °F 27 °F 8 °F (1963)
Degree Days  
Heating Degree Days 27    
Moisture  
Dew Point 27 °F    
Average Humidity 78    
Maximum Humidity 100    
Minimum Humidity 35    
Precipitation  
Precipitation 0.00 in - - ()
Sea Level Pressure  
Sea Level Pressure 30.08 in    
Wind  
Wind Speed 2 mph (WSW)    
Max Wind Speed 14 mph    
Max Gust Speed 17 mph    
Visibility 10 miles    
Events      
Averages and records for this station are not official NWS values.
T = Trace of Precipitation, MM = Missing Value Source: NWS Daily Summary

Daily Weather History Graph

Daily Weather History Graph

Search for Another Location

Airport or City:

Trip Planner

Search our weather history database for the weather conditions in past years. The results will help you decide how hot, cold, wet, or windy it might be!

Date:

Astronomy

Apr. 23, 2014 Rise Set
Actual Time 6:12 AM PDT 7:46 PM PDT
Civil Twilight 5:43 AM PDT 8:14 PM PDT
Nautical Twilight 5:09 AM PDT 8:48 PM PDT
Astronomical Twilight 4:33 AM PDT 9:25 PM PDT
Moon 2:45 AM PDT (4/23) 2:02 PM PDT (4/23)
Length of Visible Light 14h 30m
Length of Day
13h 34m
Waning Crescent, 34% of the Moon is Illuminated
Apr 23
Waning Crescent
Apr 28
New
May 6
First Quarter
May 14
Full
May 21
Last Quarter

Hourly Weather History & Observations

Time (PDT) Temp. Windchill Dew Point Humidity Pressure Visibility Wind Dir Wind Speed Gust Speed Precip Events Conditions
12:15 AM 30.2 °F - 26.6 °F 86% 30.06 in 10.0 mi Calm Calm - N/A   Mostly Cloudy
12:35 AM 30.2 °F - 26.6 °F 86% 30.05 in 10.0 mi Calm Calm - N/A   Overcast
12:55 AM 30.2 °F - 26.6 °F 86% 30.05 in 10.0 mi Calm Calm - N/A   Overcast
1:15 AM 32.0 °F - 26.6 °F 80% 30.05 in 10.0 mi Calm Calm - N/A   Overcast
1:35 AM 30.2 °F - 26.6 °F 86% 30.05 in 10.0 mi Calm Calm - N/A   Overcast
1:55 AM 30.2 °F - 26.6 °F 86% 30.04 in 10.0 mi Calm Calm - N/A   Mostly Cloudy
2:15 AM 30.2 °F - 26.6 °F 86% 30.04 in 10.0 mi Calm Calm - N/A   Clear
2:35 AM 28.4 °F - 24.8 °F 86% 30.03 in 10.0 mi Calm Calm - N/A   Clear
2:55 AM 28.4 °F - 26.6 °F 93% 30.04 in 10.0 mi Calm Calm - N/A   Clear
3:15 AM 26.6 °F - 24.8 °F 93% 30.05 in 10.0 mi Calm Calm - N/A   Clear
3:35 AM 24.8 °F 20.5 °F 23.0 °F 93% 30.05 in 10.0 mi SSE 3.5 mph - N/A   Clear
3:55 AM 24.8 °F - 23.0 °F 93% 30.04 in 10.0 mi Calm Calm - N/A   Clear
4:15 AM 24.8 °F 20.5 °F 23.0 °F 93% 30.04 in 10.0 mi SW 3.5 mph - N/A   Clear
4:35 AM 24.8 °F - 23.0 °F 93% 30.05 in 10.0 mi Calm Calm - N/A   Clear
4:55 AM 26.6 °F - 24.8 °F 93% 30.05 in 10.0 mi Calm Calm - N/A   Clear
5:15 AM 26.6 °F - 23.0 °F 86% 30.06 in 10.0 mi Calm Calm - N/A   Clear
5:35 AM 23.0 °F - 23.0 °F 100% 30.06 in 10.0 mi Calm Calm - N/A   Clear
5:55 AM 23.0 °F - 23.0 °F 100% 30.06 in 10.0 mi Calm Calm - N/A   Clear
6:15 AM 24.8 °F - 23.0 °F 93% 30.07 in 10.0 mi Calm Calm - N/A   Clear
6:35 AM 23.0 °F - 23.0 °F 100% 30.07 in 10.0 mi Calm Calm - N/A   Clear
6:45 AM 23.0 °F - 21.2 °F 93% 30.07 in 10.0 mi Calm Calm - N/A   Partly Cloudy
7:50 AM 28.4 °F - 24.8 °F 86% 30.07 in 10.0 mi Calm Calm - N/A   Clear
11:50 AM 48.2 °F - 23.0 °F 37% 30.07 in 10.0 mi WNW 4.6 mph - N/A   Scattered Clouds
2:45 PM 53.6 °F - 26.6 °F 35% 30.07 in 10.0 mi West 12.7 mph 17.3 mph N/A   Scattered Clouds
3:55 PM 51.8 °F - 26.6 °F 38% 30.07 in 10.0 mi West 12.7 mph 16.1 mph N/A   Scattered Clouds
4:50 PM 51.8 °F - 26.6 °F 38% 30.07 in 10.0 mi WNW 10.4 mph 16.1 mph N/A   Partly Cloudy
5:45 PM 50.0 °F - 26.6 °F 40% 30.07 in 10.0 mi West 13.8 mph - N/A   Mostly Cloudy
6:15 PM 50.0 °F - 28.4 °F 43% 30.08 in 10.0 mi West 12.7 mph - N/A   Clear
6:35 PM 48.2 °F - 28.4 °F 46% 30.08 in 10.0 mi West 9.2 mph - N/A   Clear
6:55 PM 46.4 °F 41.1 °F 30.2 °F 53% 30.08 in 10.0 mi West 11.5 mph 16.1 mph N/A   Clear
7:15 PM 44.6 °F 39.7 °F 30.2 °F 57% 30.08 in 10.0 mi WSW 9.2 mph - N/A   Clear
7:35 PM 42.8 °F 40.1 °F 30.2 °F 61% 30.09 in 10.0 mi West 4.6 mph - N/A   Clear
7:55 PM 42.8 °F 39.3 °F 30.2 °F 61% 30.10 in 10.0 mi West 5.8 mph - N/A   Clear
8:15 PM 41.0 °F 35.8 °F 30.2 °F 65% 30.10 in 10.0 mi West 8.1 mph - N/A   Clear
8:35 PM 41.0 °F 36.4 °F 30.2 °F 65% 30.11 in 10.0 mi West 6.9 mph - N/A   Clear
8:55 PM 37.4 °F - 30.2 °F 75% 30.11 in 10.0 mi Calm Calm - N/A   Clear
9:15 PM 35.6 °F 32.8 °F 30.2 °F 81% 30.11 in 10.0 mi South 3.5 mph - N/A   Clear
9:35 PM 35.6 °F - 30.2 °F 81% 30.11 in 10.0 mi Calm Calm - N/A   Clear
9:55 PM 32.0 °F - 30.2 °F 93% 30.12 in 10.0 mi Calm Calm - N/A   Clear
10:15 PM 33.8 °F 30.8 °F 28.4 °F 81% 30.13 in 10.0 mi SE 3.5 mph - N/A   Scattered Clouds
10:35 PM 32.0 °F 27.5 °F 28.4 °F 87% 30.13 in 10.0 mi SSE 4.6 mph - N/A   Scattered Clouds
10:55 PM 32.0 °F 28.7 °F 30.2 °F 93% 30.13 in 10.0 mi SSE 3.5 mph - N/A   Mostly Cloudy
11:15 PM 33.8 °F - 30.2 °F 87% 30.12 in 10.0 mi Calm Calm - N/A   Overcast
11:35 PM 32.0 °F 28.7 °F 30.2 °F 93% 30.11 in 10.0 mi South 3.5 mph - N/A   Overcast
11:55 PM 32.0 °F 28.7 °F 30.2 °F 93% 30.11 in 10.0 mi West 3.5 mph - N/A   Mostly Cloudy